Wind_Speed
12 13 13 13 14 10 9 12 16 21 19 17 18 19 20 18 21 20 18 19 18 18 18 15 15 16 21 25 26 33 34 30 26 23 22 19 16 16 18 16 13 10 7 6 5 4 2 2 1
13 15 15 16 14 12 10 15 18 21 23 17 19 22 22 20 21 21 26 24 21 19 19 17 15 16 23 28 29 35 35 31 27 25 23 20 17 18 18 16 14 12 10 8 6 4 3 2 1
16 17 18 19 15 12 12 16 17 24 23 19 21 22 24 24 19 23 25 26 23 21 20 18 15 17 24 30 32 38 36 32 29 27 25 21 19 19 18 17 15 13 11 9 8 6 3 2 1
20 21 22 22 17 15 14 16 24 21 28 23 21 22 26 24 21 26 27 26 24 21 20 18 15 18 26 32 34 39 37 34 31 29 27 23 21 20 19 18 16 14 12 11 9 6 4 3 3
23 24 25 22 18 17 18 19 23 25 28 30 25 23 27 23 25 25 28 27 25 23 20 18 17 21 27 33 36 40 38 35 32 30 28 26 23 22 21 19 17 15 13 11 8 6 6 5 5
26 30 28 24 23 24 23 21 25 27 26 31 33 27 30 26 26 27 28 26 28 24 22 20 18 24 28 33 37 40 38 35 33 31 29 27 25 24 22 20 18 16 13 11 9 7 7 6 6
30 32 30 30 28 28 28 29 30 27 28 31 35 35 34 33 28 30 30 29 30 27 24 22 21 27 29 34 38 41 38 36 34 32 30 28 25 23 22 21 19 17 15 12 10 9 8 8 8
31 33 31 33 36 33 32 33 34 36 27 32 38 39 38 37 30 33 30 32 30 29 27 25 25 28 32 36 40 39 38 35 34 31 30 28 26 23 22 21 20 18 16 13 12 11 11 10 11
31 30 31 36 36 36 36 34 35 38 36 35 36 42 41 37 38 34 32 31 32 33 30 29 27 29 33 37 41 39 38 35 34 32 30 28 26 24 23 22 21 19 17 15 14 14 13 12 13
30 30 34 34 36 35 38 37 41 41 42 41 38 46 48 42 43 39 39 34 31 37 33 32 32 32 35 38 38 40 38 36 35 33 32 29 27 25 25 23 21 20 19 17 17 16 15 15 16
29 30 32 35 38 37 39 40 44 45 45 46 49 50 51 49 46 46 44 42 34 35 40 35 35 34 36 39 40 39 39 38 36 35 33 31 28 27 26 25 24 23 22 21 20 19 19 18 19
28 30 31 34 37 39 41 43 44 48 49 51 52 48 49 50 48 50 47 47 39 35 40 39 39 39 37 39 42 39 39 40 38 36 34 33 32 29 27 26 26 25 25 24 23 23 23 23 23
29 29 31 34 37 39 43 42 44 42 44 47 53 52 48 46 48 54 51 50 46 38 43 50 43 43 40 37 42 43 42 41 40 38 37 35 33 32 30 29 28 28 27 27 27 27 27 27 28
28 28 32 34 36 39 38 40 41 37 42 57 59 57 53 45 44 56 56 55 51 45 42 39 35 40 41 40 39 42 46 43 42 41 40 39 36 35 34 33 32 32 32 31 31 31 31 32 32
27 28 30 32 34 34 37 38 37 44 52 55 61 60 61 54 49 47 59 58 54 48 45 46 40 40 41 42 40 39 43 46 45 44 43 42 40 38 37 36 36 36 35 36 36 36 36 36 36
28 28 30 32 30 35 35 32 39 42 52 43 38 48 62 55 48 45 57 58 56 50 53 44 41 38 39 40 40 41 41 43 45 46 45 44 44 42 41 41 41 40 40 41 41 42 41 40 40
28 27 28 29 32 35 38 36 36 45 48 36 37 31 41 45 53 43 55 59 58 55 48 39 38 43 42 42 41 41 42 40 43 45 45 45 45 45 45 44 44 44 44 44 45 46 46 45 46
27 27 28 29 32 36 38 37 34 42 34 33 34 25 34 41 45 44 52 62 56 55 47 44 47 48 41 42 41 41 42 41 41 42 44 45 47 48 48 47 47 46 46 46 47 48 49 48 48
27 27 27 29 33 34 37 37 36 36 28 26 27 22 24 32 44 47 47 60 55 53 50 43 43 42 40 38 35 36 40 40 42 42 44 45 47 48 49 49 49 48 47 48 48 47 48 48 47
27 25 27 30 30 29 33 31 32 36 24 25 22 25 19 27 39 42 43 53 45 50 50 40 40 41 40 37 38 36 37 37 42 45 45 45 46 48 49 49 49 49 48 48 48 48 47 47 48
27 26 28 29 30 28 30 30 29 32 20 20 24 18 29 24 36 37 47 50 50 44 42 38 39 42 41 40 37 38 38 38 45 41 42 46 45 46 48 48 48 49 48 48 47 47 47 47 48
27 25 27 29 30 27 27 30 29 25 20 20 29 13 6 21 41 45 58 62 23 46 44 43 43 43 43 39 37 38 40 39 44 43 44 36 44 53 50 46 45 47 48 48 49 49 44 42 49
26 27 27 29 29 23 24 26 28 22 21 24 18 10 12 10 40 51 45 50 40 32 42 47 40 40 42 44 39 38 38 42 41 42 47 51 54 47 50 42 47 49 50 49 51 44 44 40 33
24 24 26 27 27 24 19 21 23 25 19 10 2 18 6 20 29 36 28 31 44 43 44 33 38 37 48 40 28 37 36 39 42 45 46 52 51 49 48 52 50 57 45 55 49 49 44 48 49
25 24 25 26 27 20 17 17 18 20 18 9 9 10 15 6 2 1 11 38 39 40 39 46 39 39 44 41 48 43 42 38 38 39 41 46 48 52 57 50 49 52 53 52 48 47 56 48 47
25 23 25 25 26 24 17 14 14 11 15 11 3 10 3 5 9 13 10 27 43 34 30 30 31 38 42 44 44 43 44 42 45 45 40 48 47 50 55 53 52 52 47 50 54 45 45 48 47
25 21 23 23 23 24 19 13 12 12 10 12 7 9 14 16 14 20 7 19 2 11 13 23 24 31 32 54 53 49 40 45 44 43 43 40 45 40 40 39 45 44 45 51 48 51 47 49 50
25 24 23 24 22 25 19 14 12 14 11 11 11 6 6 6 9 10 14 15 9 4 12 7 19 25 26 22 36 61 52 48 46 42 43 42 48 43 47 46 50 55 58 59 54 51 46 46 47
25 24 23 23 24 22 24 15 14 13 14 15 12 8 6 5 6 7 1 3 3 7 5 11 12 13 20 18 20 27 32 38 41 42 44 47 48 47 48 50 44 46 52 44 39 42 40 38 42
27 25 23 22 23 24 23 17 17 16 14 15 16 14 10 11 9 6 4 4 5 6 10 11 11 11 13 11 15 14 16 19 23 27 25 23 29 32 35 37 37 36 34 34 38 41 42 42 44
Wind_Direction
310 309 305 305 303 307 300 274 269 271 269 266 268 265 260 258 259 259 265 261 261 262 263 262 265 246 226 212 204 192 186 185 186 186 187 189 193 188 183 178 178 188 201 219 227 203 179 149 83
293 298 298 297 294 298 296 294 286 276 278 276 273 276 272 258 247 251 255 252 257 265 266 266 271 242 217 207 200 193 189 189 188 190 190 192 195 193 194 196 203 214 228 230 213 202 194 185 82
290 288 288 284 291 301 292 288 289 290 293 293 281 273 278 272 261 243 245 252 253 259 261 266 265 241 209 204 200 194 192 192 192 190 193 193 198 201 201 202 209 216 222 221 217 215 217 264 307
288 285 282 285 297 294 287 277 284 284 289 292 292 291 275 281 273 260 244 244 246 254 259 260 253 232 210 202 200 196 194 195 195 195 194 195 201 203 204 208 212 215 219 219 217 222 235 256 290
293 292 289 295 288 282 287 281 277 280 281 286 281 285 282 272 275 267 260 246 244 247 254 256 248 221 211 204 202 198 196 199 199 199 198 198 201 203 206 211 212 212 214 218 222 238 254 260 275
302 298 300 297 289 284 274 270 273 272 274 278 279 275 274 278 281 272 262 255 241 241 245 249 240 221 211 209 201 199 200 202 203 203 202 202 205 205 207 211 213 217 219 221 220 225 235 251 267
304 302 302 299 294 286 289 286 278 273 273 271 274 273 271 270 275 276 269 257 246 239 241 241 235 222 212 209 204 201 203 205 207 208 206 207 210 209 210 213 217 220 226 230 231 239 250 260 274
303 299 299 294 291 292 282 283 291 288 276 270 270 272 269 271 266 268 273 266 250 242 238 236 232 222 213 209 206 204 206 208 210 212 212 212 213 213 216 217 220 222 227 233 241 250 258 269 277
300 297 291 286 291 290 288 290 289 288 284 276 261 262 263 263 263 258 261 260 256 245 234 234 228 226 214 211 207 207 210 211 214 215 217 217 217 216 219 221 223 225 230 234 241 250 260 271 279
298 294 290 292 288 289 288 289 287 285 284 279 268 256 258 261 258 254 252 251 251 250 237 233 229 222 220 213 214 213 212 214 216 218 220 222 222 222 222 224 227 230 234 241 247 255 263 270 278
294 291 290 291 289 289 290 290 291 289 286 281 275 260 258 259 253 253 250 248 246 248 245 236 231 226 221 221 218 221 220 219 219 221 223 225 227 229 229 230 233 235 240 245 251 257 264 271 277
298 294 293 293 295 294 295 294 293 292 288 283 276 264 266 259 244 244 243 246 240 243 248 242 234 229 222 223 225 222 228 225 225 225 227 228 231 234 237 239 240 243 246 251 256 260 264 268 273
304 300 296 295 296 298 297 297 294 289 290 288 276 258 254 253 241 234 235 237 240 233 244 240 232 231 228 225 228 225 226 231 229 231 233 233 234 236 240 243 246 251 253 256 259 263 266 269 273
309 303 300 299 299 302 302 297 290 292 297 304 280 254 254 247 244 230 229 231 235 231 237 245 238 232 229 230 228 231 230 229 234 234 235 238 239 240 242 246 250 252 257 260 263 266 268 271 273
310 305 303 305 307 302 304 298 293 299 294 300 270 255 247 248 250 239 223 226 227 228 234 243 237 234 234 234 233 233 236 234 234 236 239 241 242 245 247 248 252 255 258 262 265 267 270 272 275
313 310 310 309 308 304 304 296 306 311 320 299 289 258 247 237 244 243 229 220 223 226 225 227 230 226 232 232 235 236 237 239 239 239 240 242 245 246 248 251 253 256 259 262 265 267 269 272 275
317 316 311 313 304 303 301 306 310 323 318 302 289 275 255 244 246 233 226 217 219 222 227 234 251 245 234 235 232 235 239 241 242 242 242 244 246 248 248 250 253 256 259 261 264 266 269 271 274
321 319 313 316 309 307 306 314 326 331 319 302 287 277 251 232 222 228 222 216 214 221 218 221 238 248 232 233 236 236 235 239 246 248 245 245 247 248 251 253 254 256 259 262 265 268 270 274 276
325 324 323 319 314 310 313 315 346 340 331 308 297 290 259 227 216 222 221 215 215 218 222 222 239 252 244 236 235 238 241 241 243 246 248 248 249 250 252 255 258 259 262 264 267 272 274 276 279
326 325 323 320 321 317 322 331 347 347 329 321 302 277 275 230 214 217 216 205 204 226 226 226 235 246 256 239 238 240 242 241 245 244 248 252 253 254 254 256 259 261 263 266 270 274 277 278 280
327 327 323 322 327 328 332 340 353 344 327 334 324 319 254 241 209 212 206 195 203 221 217 228 232 247 249 255 248 242 244 241 246 248 255 255 256 258 260 260 261 264 267 269 271 273 275 279 282
326 328 325 327 330 336 340 345 348 346 345 331 329 338 312 232 196 205 200 203 203 206 215 213 234 245 252 255 255 243 244 251 246 246 248 251 256 259 257 259 264 266 267 268 270 273 276 282 284
329 328 328 328 330 337 346 349 347 356 349 358 3 342 86 182 195 187 196 198 213 220 226 226 233 246 252 261 263 249 244 246 250 252 248 253 252 264 257 259 263 263 265 266 270 271 274 279 266
327 329 328 328 328 333 346 347 343 345 353 0 339 56 109 170 187 191 223 191 206 213 225 227 237 246 257 258 245 253 252 248 252 250 253 251 257 258 262 261 276 258 276 269 267 272 272 275 261
326 329 329 328 329 333 339 340 342 338 348 41 8 279 274 212 240 244 190 200 214 216 243 238 232 248 261 255 255 263 239 245 248 246 254 258 260 257 267 268 274 277 274 275 260 274 271 270 267
326 331 331 328 327 327 325 338 340 330 349 340 256 284 330 101 102 99 148 213 215 238 232 222 240 245 259 264 257 253 254 244 240 253 256 259 258 262 261 266 268 267 276 269 258 271 270 278 277
325 330 328 327 326 324 319 316 313 325 325 324 319 282 287 317 294 308 123 323 221 215 270 253 249 259 274 246 246 238 254 250 248 251 256 269 266 267 268 273 269 260 265 273 274 276 271 277 278
322 328 328 324 322 321 323 322 288 297 303 320 323 294 286 330 306 339 320 321 292 258 248 270 263 273 260 272 252 239 243 245 249 252 258 254 267 269 259 277 274 269 267 266 271 270 269 275 276
319 322 325 322 321 322 324 320 308 283 287 298 302 319 290 289 297 340 291 237 222 331 325 300 278 269 278 281 259 239 237 241 241 248 247 253 259 260 262 270 264 261 261 268 269 268 270 276 277
316 316 317 321 324 320 318 327 308 295 283 284 289 293 304 315 312 287 244 247 313 281 263 262 275 288 281 277 250 241 236 242 243 244 247 245 249 250 256 265 268 271 275 281 288 290 288 285 279
Height
5810 5810 5810 5809 5812 5810 5809 5808 5808 5808 5810 5812 5812 5810 5809 5811 5810 5815 5811 5812 5813 5814 5814 5814 5815 5815 5817 5821 5824 5827 5829 5831 5835 5837 5840 5842 5845 5847 5849 5850 5850 5851 5852 5852 5853 5853 5854 5854 5854
5808 5807 5806 5806 5808 5808 5808 5806 5806 5806 5807 5810 5810 5810 5808 5807 5807 5807 5809 5809 5810 5811 5811 5810 5811 5811 5813 5817 5821 5825 5827 5830 5832 5835 5838 5841 5843 5846 5847 5848 5849 5850 5851 5851 5851 5852 5853 5853 5853
5805 5805 5804 5803 5805 5806 5806 5804 5805 5803 5804 5806 5807 5807 5806 5806 5807 5804 5804 5806 5807 5808 5808 5808 5807 5808 5810 5814 5818 5821 5825 5827 5830 5831 5835 5838 5841 5843 5845 5846 5847 5849 5850 5850 5851 5851 5852 5852 5852
5802 5802 5801 5801 5803 5803 5803 5802 5801 5802 5799 5803 5804 5804 5803 5803 5805 5803 5800 5801 5803 5805 5805 5805 5805 5805 5807 5811 5815 5819 5821 5824 5827 5829 5831 5834 5837 5840 5842 5844 5845 5847 5848 5849 5850 5850 5851 5851 5851
5798 5796 5796 5798 5799 5799 5798 5798 5797 5797 5797 5796 5799 5799 5797 5800 5798 5800 5799 5798 5800 5801 5802 5802 5803 5802 5805 5808 5812 5817 5818 5822 5824 5827 5829 5831 5833 5836 5839 5841 5843 5844 5846 5848 5848 5849 5849 5850 5850
5793 5792 5792 5792 5793 5792 5793 5794 5792 5791 5792 5790 5791 5793 5791 5795 5796 5795 5795 5796 5795 5797 5798 5799 5800 5801 5802 5806 5808 5813 5816 5819 5822 5825 5827 5829 5830 5833 5836 5838 5841 5842 5844 5845 5846 5847 5848 5848 5848
5789 5788 5788 5786 5785 5785 5785 5784 5784 5786 5787 5787 5784 5785 5787 5787 5793 5791 5793 5792 5793 5793 5794 5795 5796 5799 5800 5802 5805 5809 5813 5816 5819 5822 5824 5827 5829 5831 5833 5836 5838 5840 5841 5842 5843 5844 5845 5845 5845
5784 5783 5782 5780 5778 5779 5779 5777 5778 5777 5781 5780 5777 5777 5779 5781 5786 5784 5788 5789 5790 5789 5791 5792 5793 5794 5796 5799 5802 5806 5809 5812 5816 5820 5822 5825 5827 5829 5832 5833 5835 5837 5838 5840 5841 5842 5842 5842 5842
5778 5778 5776 5772 5773 5772 5771 5772 5772 5769 5770 5771 5769 5766 5768 5775 5775 5778 5779 5781 5786 5784 5785 5787 5789 5792 5793 5796 5799 5802 5805 5809 5813 5816 5819 5822 5825 5826 5829 5831 5832 5834 5835 5836 5837 5838 5839 5839 5839
5774 5772 5769 5769 5766 5765 5764 5764 5762 5763 5762 5760 5762 5757 5755 5768 5767 5769 5771 5772 5778 5779 5780 5781 5784 5786 5790 5792 5796 5799 5801 5804 5808 5811 5815 5819 5821 5824 5825 5827 5829 5831 5832 5833 5834 5834 5835 5835 5835
5767 5765 5762 5761 5758 5757 5755 5755 5752 5752 5752 5750 5748 5743 5745 5752 5756 5759 5762 5764 5769 5772 5774 5776 5778 5780 5784 5790 5791 5796 5799 5801 5804 5807 5811 5814 5818 5820 5822 5824 5826 5827 5828 5828 5829 5830 5830 5831 5831
5761 5758 5755 5753 5751 5749 5746 5744 5744 5739 5739 5737 5734 5731 5733 5737 5743 5746 5751 5755 5760 5765 5766 5770 5771 5774 5777 5782 5786 5791 5796 5797 5801 5804 5807 5810 5814 5817 5820 5821 5822 5823 5824 5825 5825 5826 5826 5826 5826
5754 5752 5748 5745 5742 5740 5738 5734 5731 5729 5723 5721 5721 5718 5720 5723 5726 5732 5738 5744 5750 5757 5759 5759 5765 5768 5772 5774 5779 5785 5788 5793 5796 5800 5804 5807 5809 5812 5815 5816 5818 5820 5820 5820 5821 5821 5821 5821 5821
5746 5744 5741 5737 5733 5731 5728 5723 5715 5713 5710 5708 5703 5703 5703 5706 5709 5715 5724 5732 5740 5746 5751 5751 5757 5761 5766 5769 5772 5777 5781 5786 5791 5795 5798 5801 5804 5807 5809 5812 5813 5814 5815 5815 5815 5815 5815 5815 5814
5739 5737 5733 5729 5725 5721 5716 5708 5703 5701 5694 5685 5677 5678 5682 5689 5693 5701 5709 5720 5728 5736 5741 5745 5747 5756 5759 5763 5767 5771 5776 5780 5785 5789 5792 5796 5798 5801 5803 5805 5807 5808 5809 5809 5809 5809 5808 5808 5807
5733 5730 5725 5719 5715 5708 5704 5700 5694 5686 5673 5661 5653 5655 5659 5666 5679 5691 5700 5709 5719 5726 5730 5730 5741 5748 5751 5754 5761 5764 5768 5774 5778 5782 5786 5789 5792 5794 5796 5797 5799 5800 5802 5802 5802 5801 5801 5800 5800
5726 5722 5717 5712 5705 5699 5694 5690 5682 5671 5659 5650 5644 5642 5649 5659 5669 5678 5686 5696 5707 5715 5721 5729 5734 5738 5744 5747 5752 5757 5763 5767 5770 5774 5778 5781 5784 5786 5787 5788 5790 5792 5793 5793 5793 5793 5793 5792 5791
5719 5716 5710 5704 5699 5691 5685 5680 5672 5660 5651 5644 5637 5635 5636 5646 5656 5665 5674 5685 5696 5706 5715 5723 5727 5732 5736 5741 5746 5750 5754 5759 5764 5767 5770 5773 5775 5777 5779 5781 5781 5782 5784 5784 5784 5784 5784 5784 5782
5713 5709 5704 5697 5691 5684 5678 5672 5662 5653 5645 5638 5632 5631 5631 5637 5647 5657 5666 5681 5693 5701 5708 5715 5721 5726 5730 5735 5739 5743 5747 5752 5755 5759 5762 5765 5767 5769 5771 5773 5773 5774 5775 5775 5775 5776 5775 5775 5774
5709 5704 5699 5693 5686 5679 5673 5665 5655 5648 5640 5634 5627 5626 5627 5631 5640 5652 5663 5679 5691 5691 5702 5709 5715 5719 5723 5729 5732 5736 5740 5744 5747 5751 5754 5757 5759 5761 5762 5763 5765 5765 5766 5767 5767 5767 5767 5766 5765
5706 5700 5694 5689 5681 5675 5669 5662 5651 5645 5637 5633 5624 5618 5620 5626 5636 5649 5660 5674 5681 5681 5696 5705 5710 5713 5718 5721 5726 5729 5733 5737 5740 5744 5747 5749 5751 5752 5753 5755 5756 5757 5757 5757 5758 5758 5758 5758 5756
5701 5696 5691 5684 5677 5671 5667 5659 5652 5646 5638 5631 5625 5621 5618 5622 5630 5643 5653 5662 5654 5682 5692 5701 5706 5710 5712 5715 5719 5722 5726 5729 5732 5735 5736 5737 5741 5742 5743 5745 5746 5747 5747 5747 5747 5748 5749 5747 5745
5699 5693 5688 5682 5675 5671 5665 5660 5654 5648 5642 5638 5632 5627 5624 5628 5631 5644 5656 5663 5674 5683 5686 5690 5699 5704 5706 5709 5711 5714 5717 5721 5724 5727 5728 5730 5731 5733 5733 5734 5736 5736 5737 5737 5736 5737 5738 5739 5731
5696 5690 5686 5680 5674 5670 5665 5662 5656 5651 5647 5644 5642 5638 5638 5639 5644 5650 5654 5660 5672 5675 5676 5684 5693 5697 5699 5701 5701 5707 5712 5713 5714 5715 5719 5722 5723 5725 5725 5724 5724 5723 5726 5726 5726 5726 5727 5729 5728
5693 5687 5683 5680 5674 5670 5666 5663 5659 5653 5650 5648 5646 5646 5647 5646 5650 5649 5644 5660 5668 5672 5676 5679 5685 5689 5693 5694 5697 5701 5704 5705 5706 5704 5710 5713 5714 5716 5713 5716 5715 5715 5715 5716 5714 5715 5717 5717 5717
5691 5687 5683 5679 5675 5670 5667 5664 5662 5658 5652 5652 5650 5649 5650 5647 5647 5650 5652 5659 5664 5672 5667 5670 5676 5682 5683 5685 5689 5690 5695 5696 5698 5699 5702 5704 5705 5706 5706 5707 5706 5704 5705 5704 5706 5706 5706 5705 5703
5689 5685 5682 5678 5674 5669 5667 5665 5663 5659 5657 5654 5653 5651 5649 5650 5651 5653 5652 5654 5661 5664 5660 5666 5670 5676 5677 5677 5678 5682 5686 5688 5689 5690 5692 5695 5695 5693 5696 5697 5695 5697 5695 5695 5696 5695 5694 5692 5691
5687 5683 5680 5676 5673 5669 5666 5663 5661 5660 5659 5658 5654 5653 5652 5650 5655 5652 5651 5654 5657 5661 5663 5664 5668 5670 5672 5670 5670 5671 5676 5679 5680 5681 5683 5685 5685 5684 5687 5686 5687 5686 5686 5684 5683 5681 5680 5679 5677
5685 5680 5677 5675 5672 5669 5665 5664 5660 5659 5658 5656 5656 5654 5654 5650 5651 5649 5654 5654 5655 5657 5658 5661 5664 5666 5668 5667 5668 5667 5668 5671 5672 5672 5674 5675 5675 5675 5676 5676 5675 5674 5674 5673 5672 5670 5668 5666 5664
5682 5677 5674 5672 5671 5668 5664 5664 5660 5658 5657 5656 5655 5653 5652 5650 5650 5653 5654 5655 5654 5656 5659 5661 5661 5660 5664 5662 5665 5664 5663 5665 5665 5666 5666 5665 5667 5666 5666 5665 5665 5664 5663 5663 5662 5660 5658 5656 5655